Time,TemperatureF,DewpointF,PressureIn,WindDirection,WindDirectionDegrees,WindSpeedMPH,WindSpeedGustMPH,Humidity,HourlyPrecipIn,Conditions,Clouds,dailyrainin,SoftwareType,DateUTC
2013-12-05 00:00:00,33.6,29.2,-100.00,NW,314,0.0,0.9,83,0.00,,,-99.99,HOBO +U30 +Weather +,2013-12-05 05:00:00,
2013-12-05 00:15:00,34.4,30.1,-100.00,NW,314,1.3,2.5,84,0.00,,,-99.99,HOBO +U30 +Weather +,2013-12-05 05:15:00,
2013-12-05 00:30:00,34.7,30.0,-100.00,West,261,0.9,3.8,82,0.00,,,-99.99,HOBO +U30 +Weather +,2013-12-05 05:30:00,
2013-12-05 00:45:00,35.2,30.4,-100.00,WSW,253,1.6,2.9,82,0.00,,,-99.99,HOBO +U30 +Weather +,2013-12-05 05:45:00,
2013-12-05 01:00:00,35.7,31.1,-100.00,WSW,253,1.6,3.8,83,0.00,,,-99.99,HOBO +U30 +Weather +,2013-12-05 06:00:00,
2013-12-05 01:15:00,36.2,31.9,-100.00,WSW,253,2.0,3.8,84,0.00,,,-99.99,HOBO +U30 +Weather +,2013-12-05 06:15:00,
2013-12-05 01:30:00,36.8,32.1,-100.00,WSW,253,0.9,2.5,83,0.00,,,-99.99,HOBO +U30 +Weather +,2013-12-05 06:30:00,
2013-12-05 01:45:00,34.6,30.7,-100.00,WSW,248,1.6,4.3,85,0.00,,,-99.99,HOBO +U30 +Weather +,2013-12-05 06:45:00,
2013-12-05 02:07:00,34.7,31.0,-100.00,WSW,248,0.4,2.9,86,0.00,,,-99.99,HOBO +U30 +Weather +,2013-12-05 07:07:00,
2013-12-05 02:15:00,34.3,31.0,-100.00,WSW,248,0.4,2.0,87,0.00,,,-99.99,HOBO +U30 +Weather +,2013-12-05 07:15:00,
2013-12-05 02:30:00,35.2,31.6,-100.00,WSW,248,0.0,2.0,86,0.00,,,-99.99,HOBO +U30 +Weather +,2013-12-05 07:30:00,
2013-12-05 02:45:00,36.4,32.4,-100.00,WSW,247,1.3,3.8,85,0.00,,,-99.99,HOBO +U30 +Weather +,2013-12-05 07:45:00,
2013-12-05 03:06:00,36.9,33.0,-100.00,WSW,247,0.0,0.0,85,0.00,,,-99.99,HOBO +U30 +Weather +,2013-12-05 08:06:00,
2013-12-05 03:15:00,36.6,33.6,-100.00,WSW,247,0.0,1.6,88,0.00,,,-99.99,HOBO +U30 +Weather +,2013-12-05 08:15:00,
2013-12-05 03:30:00,36.6,33.2,-100.00,WSW,247,0.4,2.0,87,0.00,,,-99.99,HOBO +U30 +Weather +,2013-12-05 08:30:00,
2013-12-05 03:45:00,36.5,33.6,-100.00,WSW,247,0.0,0.0,89,0.00,,,-99.99,HOBO +U30 +Weather +,2013-12-05 08:45:00,
2013-12-05 04:06:00,36.1,33.1,-100.00,WSW,247,0.4,1.6,88,0.00,,,-99.99,HOBO +U30 +Weather +,2013-12-05 09:06:00,
2013-12-05 04:15:00,35.9,32.9,-100.00,WSW,247,0.4,2.0,88,0.00,,,-99.99,HOBO +U30 +Weather +,2013-12-05 09:15:00,
2013-12-05 04:30:00,35.8,32.1,-100.00,WSW,247,0.4,2.5,86,0.00,,,-99.99,HOBO +U30 +Weather +,2013-12-05 09:30:00,
2013-12-05 04:45:00,35.6,32.3,-100.00,WSW,247,0.0,2.0,87,0.00,,,-99.99,HOBO +U30 +Weather +,2013-12-05 09:45:00,
2013-12-05 05:06:00,36.0,32.7,-100.00,WSW,247,0.0,1.6,87,0.00,,,-99.99,HOBO +U30 +Weather +,2013-12-05 10:06:00,
2013-12-05 05:15:00,36.1,32.3,-100.00,WSW,247,0.4,2.5,86,0.00,,,-99.99,HOBO +U30 +Weather +,2013-12-05 10:15:00,
2013-12-05 05:30:00,36.0,31.8,-100.00,WSW,247,0.4,3.4,84,0.00,,,-99.99,HOBO +U30 +Weather +,2013-12-05 10:30:00,
2013-12-05 05:45:00,35.5,31.6,-100.00,SW,234,1.6,4.3,85,0.00,,,-99.99,HOBO +U30 +Weather +,2013-12-05 10:45:00,
2013-12-05 06:00:00,35.4,31.9,-100.00,SSW,192,1.6,4.3,86,0.00,,,-99.99,HOBO +U30 +Weather +,2013-12-05 11:00:00,
2013-12-05 06:15:00,35.6,32.1,-100.00,South,185,1.3,3.8,86,0.00,,,-99.99,HOBO +U30 +Weather +,2013-12-05 11:15:00,
2013-12-05 06:30:00,35.7,32.4,-100.00,South,177,1.6,4.5,87,0.00,,,-99.99,HOBO +U30 +Weather +,2013-12-05 11:30:00,
2013-12-05 06:45:00,35.7,32.2,-100.00,SSE,154,0.9,2.9,87,0.00,,,-99.99,HOBO +U30 +Weather +,2013-12-05 11:45:00,
2013-12-05 07:00:00,36.1,32.8,-100.00,SSE,153,0.0,0.0,87,0.00,,,-99.99,HOBO +U30 +Weather +,2013-12-05 12:00:00,
2013-12-05 07:15:00,35.9,32.7,-100.00,SSE,153,0.0,1.6,88,0.00,,,-99.99,HOBO +U30 +Weather +,2013-12-05 12:15:00,
2013-12-05 07:30:00,35.7,32.5,-100.00,SSE,153,0.4,2.5,87,0.00,,,-99.99,HOBO +U30 +Weather +,2013-12-05 12:30:00,
2013-12-05 07:45:00,34.1,32.3,-100.00,SSE,153,0.4,2.9,93,0.00,,,-99.99,HOBO +U30 +Weather +,2013-12-05 12:45:00,
2013-12-05 08:00:00,34.5,32.9,-100.00,SSE,153,0.0,1.6,94,0.00,,,-99.99,HOBO +U30 +Weather +,2013-12-05 13:00:00,
2013-12-05 08:15:00,34.4,33.0,-100.00,SSE,153,0.0,2.0,94,0.00,,,-99.99,HOBO +U30 +Weather +,2013-12-05 13:15:00,
2013-12-05 08:30:00,33.5,32.1,-100.00,SE,140,1.3,3.8,94,0.00,,,-99.99,HOBO +U30 +Weather +,2013-12-05 13:30:00,
2013-12-05 08:45:00,33.8,32.5,-100.00,SE,128,0.4,3.4,94,0.00,,,-99.99,HOBO +U30 +Weather +,2013-12-05 13:45:00,
2013-12-05 09:00:00,33.5,32.3,-100.00,SE,128,1.6,4.3,95,0.05,,,-99.99,HOBO +U30 +Weather +,2013-12-05 14:00:00,
2013-12-05 09:15:00,34.5,33.6,-100.00,ESE,122,0.4,2.5,96,0.05,,,-99.99,HOBO +U30 +Weather +,2013-12-05 14:15:00,
2013-12-05 09:30:00,34.0,33.3,-100.00,ESE,122,0.9,2.5,97,0.00,,,-99.99,HOBO +U30 +Weather +,2013-12-05 14:30:00,
2013-12-05 09:45:00,33.9,33.3,-100.00,ESE,122,1.3,2.9,97,0.00,,,-99.99,HOBO +U30 +Weather +,2013-12-05 14:45:00,
2013-12-05 10:00:00,34.4,33.8,-100.00,ESE,122,1.3,2.5,97,0.00,,,-99.99,HOBO +U30 +Weather +,2013-12-05 15:00:00,
2013-12-05 10:15:00,35.0,34.4,-100.00,ESE,122,0.9,2.5,97,0.00,,,-99.99,HOBO +U30 +Weather +,2013-12-05 15:15:00,
2013-12-05 10:30:00,35.5,35.0,-100.00,ESE,122,0.0,2.0,98,0.00,,,-99.99,HOBO +U30 +Weather +,2013-12-05 15:30:00,
2013-12-05 10:45:00,36.0,35.5,-100.00,ESE,122,0.0,0.0,98,0.00,,,-99.99,HOBO +U30 +Weather +,2013-12-05 15:45:00,
2013-12-05 11:00:00,35.8,35.3,-100.00,ESE,118,0.9,4.3,98,0.00,,,-99.99,HOBO +U30 +Weather +,2013-12-05 16:00:00,
2013-12-05 11:15:00,35.7,35.2,-100.00,NNE,18,2.0,3.8,98,0.00,,,-99.99,HOBO +U30 +Weather +,2013-12-05 16:15:00,
2013-12-05 11:30:00,35.7,35.3,-100.00,NNE,14,1.6,3.4,98,0.00,,,-99.99,HOBO +U30 +Weather +,2013-12-05 16:30:00,
2013-12-05 11:45:00,36.5,36.0,-100.00,NNE,14,0.9,3.4,98,0.00,,,-99.99,HOBO +U30 +Weather +,2013-12-05 16:45:00,
2013-12-05 12:00:00,37.9,37.5,-100.00,NNE,14,0.0,2.0,98,0.00,,,-99.99,HOBO +U30 +Weather +,2013-12-05 17:00:00,
2013-12-05 12:15:00,38.2,37.8,-100.00,NNE,14,0.0,0.0,98,0.00,,,-99.99,HOBO +U30 +Weather +,2013-12-05 17:15:00,
2013-12-05 12:30:00,37.8,37.4,-100.00,NNE,14,0.9,3.4,98,0.00,,,-99.99,HOBO +U30 +Weather +,2013-12-05 17:30:00,
2013-12-05 12:45:00,38.5,38.0,-100.00,NNE,14,0.9,2.9,98,0.00,,,-99.99,HOBO +U30 +Weather +,2013-12-05 17:45:00,
2013-12-05 13:00:00,39.9,39.4,-100.00,NNE,14,0.4,2.5,98,0.00,,,-99.99,HOBO +U30 +Weather +,2013-12-05 18:00:00,
2013-12-05 13:15:00,39.5,39.0,-100.00,NE,42,1.3,3.4,98,0.00,,,-99.99,HOBO +U30 +Weather +,2013-12-05 18:15:00,
2013-12-05 13:30:00,38.8,38.2,-100.00,East,91,0.9,3.4,97,0.00,,,-99.99,HOBO +U30 +Weather +,2013-12-05 18:30:00,
2013-12-05 13:45:00,38.0,37.5,-100.00,NNE,31,0.9,3.8,98,0.00,,,-99.99,HOBO +U30 +Weather +,2013-12-05 18:45:00,
2013-12-05 14:00:00,38.1,37.7,-100.00,NNE,29,0.0,2.0,98,0.00,,,-99.99,HOBO +U30 +Weather +,2013-12-05 19:00:00,
2013-12-05 14:15:00,38.7,38.1,-100.00,NNE,31,0.0,0.0,98,0.00,,,-99.99,HOBO +U30 +Weather +,2013-12-05 19:15:00,
2013-12-05 14:30:00,39.5,39.0,-100.00,NNE,31,0.0,1.6,98,0.00,,,-99.99,HOBO +U30 +Weather +,2013-12-05 19:30:00,
2013-12-05 14:45:00,39.4,38.9,-100.00,NNE,31,0.0,2.0,98,0.00,,,-99.99,HOBO +U30 +Weather +,2013-12-05 19:45:00,
2013-12-05 15:00:00,38.4,37.9,-100.00,NNE,31,0.0,2.0,98,0.00,,,-99.99,HOBO +U30 +Weather +,2013-12-05 20:00:00,
2013-12-05 15:15:00,38.1,37.7,-100.00,NNE,27,0.9,2.9,98,0.00,,,-99.99,HOBO +U30 +Weather +,2013-12-05 20:15:00,
2013-12-05 15:30:00,37.7,37.3,-100.00,NNE,22,0.9,2.9,98,0.00,,,-99.99,HOBO +U30 +Weather +,2013-12-05 20:30:00,
2013-12-05 15:45:00,38.0,37.6,-100.00,NNE,22,0.0,0.0,98,0.00,,,-99.99,HOBO +U30 +Weather +,2013-12-05 20:45:00,
2013-12-05 16:00:00,37.9,37.5,-100.00,NNE,22,0.0,0.0,98,0.00,,,-99.99,HOBO +U30 +Weather +,2013-12-05 21:00:00,
2013-12-05 16:15:00,37.4,37.0,-100.00,NNE,22,0.4,2.9,98,0.00,,,-99.99,HOBO +U30 +Weather +,2013-12-05 21:15:00,
2013-12-05 16:30:00,37.4,37.0,-100.00,NNE,22,0.0,0.4,98,0.00,,,-99.99,HOBO +U30 +Weather +,2013-12-05 21:30:00,
2013-12-05 16:45:00,37.5,37.1,-100.00,NNE,22,0.0,0.0,98,0.00,,,-99.99,HOBO +U30 +Weather +,2013-12-05 21:45:00,
2013-12-05 17:00:00,37.6,37.3,-100.00,NNE,22,0.0,0.0,98,0.00,,,-99.99,HOBO +U30 +Weather +,2013-12-05 22:00:00,
2013-12-05 17:15:00,37.8,37.4,-100.00,NNE,22,0.0,0.0,98,0.00,,,-99.99,HOBO +U30 +Weather +,2013-12-05 22:15:00,
2013-12-05 17:30:00,37.9,37.5,-100.00,NNE,22,0.0,1.6,98,0.00,,,-99.99,HOBO +U30 +Weather +,2013-12-05 22:30:00,
2013-12-05 17:45:00,37.7,37.3,-100.00,NNE,22,0.0,0.0,98,0.00,,,-99.99,HOBO +U30 +Weather +,2013-12-05 22:45:00,
2013-12-05 18:00:00,38.2,37.9,-100.00,NNE,22,0.0,3.8,98,0.00,,,-99.99,HOBO +U30 +Weather +,2013-12-05 23:00:00,
2013-12-05 18:15:00,38.4,38.1,-100.00,NNE,20,0.0,2.0,98,0.00,,,-99.99,HOBO +U30 +Weather +,2013-12-05 23:15:00,
2013-12-05 18:30:00,38.7,38.4,-100.00,NNE,18,0.0,0.0,98,0.00,,,-99.99,HOBO +U30 +Weather +,2013-12-05 23:30:00,
2013-12-05 18:45:00,38.8,38.4,-100.00,NNE,18,0.0,0.0,98,0.00,,,-99.99,HOBO +U30 +Weather +,2013-12-05 23:45:00,
2013-12-05 19:00:00,38.7,38.4,-100.00,NNE,18,0.0,0.0,98,0.00,,,-99.99,HOBO +U30 +Weather +,2013-12-06 00:00:00,
2013-12-05 19:15:00,38.8,38.5,-100.00,NNE,18,0.0,0.0,98,0.00,,,-99.99,HOBO +U30 +Weather +,2013-12-06 00:15:00,
2013-12-05 19:30:00,38.9,38.6,-100.00,NNE,18,0.0,0.0,98,0.00,,,-99.99,HOBO +U30 +Weather +,2013-12-06 00:30:00,
2013-12-05 19:45:00,39.1,38.8,-100.00,NNE,18,0.0,0.0,98,0.00,,,-99.99,HOBO +U30 +Weather +,2013-12-06 00:45:00,
2013-12-05 20:00:00,39.7,39.4,-100.00,NNE,18,0.0,0.0,98,0.00,,,-99.99,HOBO +U30 +Weather +,2013-12-06 01:00:00,
2013-12-05 20:15:00,40.8,40.5,-100.00,NNE,21,0.0,3.8,98,0.00,,,-99.99,HOBO +U30 +Weather +,2013-12-06 01:15:00,
2013-12-05 20:30:00,41.3,41.0,-100.00,SSW,201,1.6,6.3,98,0.05,,,-99.99,HOBO +U30 +Weather +,2013-12-06 01:30:00,
2013-12-05 20:53:00,42.6,42.3,-100.00,SSW,204,2.0,8.3,98,0.00,,,-99.99,HOBO +U30 +Weather +,2013-12-06 01:53:00,
2013-12-05 21:00:00,44.0,43.6,-100.00,SSW,212,0.0,0.0,98,0.00,,,-99.99,HOBO +U30 +Weather +,2013-12-06 02:00:00,
2013-12-05 21:15:00,48.7,48.5,-100.00,SW,233,0.4,7.2,98,0.00,,,-99.99,HOBO +U30 +Weather +,2013-12-06 02:15:00,
2013-12-05 21:30:00,50.0,49.7,-100.00,SW,227,0.0,7.2,98,0.00,,,-99.99,HOBO +U30 +Weather +,2013-12-06 02:30:00,
2013-12-05 21:53:00,49.6,49.3,-100.00,SSW,206,0.0,0.0,98,0.00,,,-99.99,HOBO +U30 +Weather +,2013-12-06 02:53:00,
2013-12-05 22:00:00,49.1,48.8,-100.00,SSW,206,0.0,0.0,98,0.00,,,-99.99,HOBO +U30 +Weather +,2013-12-06 03:00:00,
2013-12-05 22:15:00,49.6,49.4,-100.00,SSW,213,0.0,0.0,99,0.00,,,-99.99,HOBO +U30 +Weather +,2013-12-06 03:15:00,
2013-12-05 22:30:00,50.6,50.3,-100.00,WNW,302,0.0,0.0,98,0.00,,,-99.99,HOBO +U30 +Weather +,2013-12-06 03:30:00,
2013-12-05 22:53:00,52.6,52.3,-100.00,West,279,1.6,14.5,98,0.00,,,-99.99,HOBO +U30 +Weather +,2013-12-06 03:53:00,
2013-12-05 23:00:00,52.7,52.4,-100.00,West,271,0.0,5.8,99,0.00,,,-99.99,HOBO +U30 +Weather +,2013-12-06 04:00:00,
2013-12-05 23:15:00,53.0,52.8,-100.00,West,270,0.0,2.5,99,0.00,,,-99.99,HOBO +U30 +Weather +,2013-12-06 04:15:00,
2013-12-05 23:30:00,53.3,53.1,-100.00,West,268,0.0,7.8,99,0.00,,,-99.99,HOBO +U30 +Weather +,2013-12-06 04:30:00,
2013-12-05 23:53:00,53.3,53.1,-100.00,West,264,0.0,0.0,99,0.00,,,-99.99,HOBO +U30 +Weather +,2013-12-06 04:53:00,